Regional Weather Roundup
Issued by NWS

Home | Current Version | Previous Version | Text Only | Print | Product List | Glossary Off
Versions: 1 2 3 4 5 6 7 8 9 10 11 12 13 14 15 16 17 18 19 20 21 22 23 24 25 26 27 28 29 30 31 32 33 34 35 36 37 38 39 40 41 42 43 44 45 46 47 48 49 50

000
ASUS43 KLMK 181102
RWRKY
KENTUCKY REGIONAL WEATHER ROUNDUP
NATIONAL WEATHER SERVICE LOUISVILLE KY
600 AM EST MON DEC 18 2017

NOTE "FAIR" INDICATES FEW OR NO CLOUDS BELOW 12,000 FEET
WITH NO SIGNIFICANT WEATHER AND/OR OBSTRUCTIONS TO VISIBILITY.

KYZ001>023-026-027-061>063-070>075-181200-
WESTERN AND SOUTH CENTRAL KENTUCKY

CITY           SKY/WX    TMP DP  RH WIND       PRES   REMARKS
PADUCAH        CLOUDY    45  42  89 SW6       30.13R FOG
HENDERSON      LGT RAIN  44  44 100 S7        30.12R FOG
OWENSBORO      FOG      N/A N/A N/A S8        30.13R VSB 1
HOPKINSVILLE   CLOUDY    45  45 100 SW6       30.13R
BOWLING GREEN  CLOUDY    46  46 100 SW3       30.14R FOG
GLASGOW        NOT AVBL
$$

KYZ024-025-028>034-038-045-046-053-181200-
NORTH CENTRAL KENTUCKY

CITY           SKY/WX    TMP DP  RH WIND       PRES   REMARKS
LOUISVILLE/SDF CLOUDY    46  42  86 SW7       30.11S
LOUISVILLE/LOU CLOUDY    45  44  97 S7        30.11F
FORT KNOX      CLOUDY    43  43 100 S7        30.09F
$$

KYZ035>037-039>044-047>052-055>060-089>105-181200-
NORTHEAST KENTUCKY

CITY           SKY/WX    TMP DP  RH WIND       PRES   REMARKS
LEXINGTON      FOG       43  41  93 SW7       30.12R VSB 1/2
COVINGTON      FOG       41  41 100 S8        30.07S VSB 1
FRANKFORT      CLOUDY    44  41  89 SW9       30.10S FOG
$$

KYZ054-064>069-076>088-106>120-181200-
SOUTHEAST KENTUCKY

CITY           SKY/WX    TMP DP  RH WIND       PRES   REMARKS
JACKSON        CLOUDY    42  41  96 SW3       30.13R FOG
LONDON         CLOUDY    44  43  96 CALM      30.13S FOG
SOMERSET       CLOUDY    43  43 100 CALM      30.15S FOG
MIDDLESBORO    CLOUDY    40  40 100 CALM      30.16F FOG
MONTICELLO     CLOUDY    44  44 100 NE7       30.15S
$$




USA.gov is the U.S. government's official web portal to all federal, state and local government web resources and services.